Lid_Strength_Index
-1 -1 -1 -1 -1 -1 -1 0 1 1 1 1 1 1 1 1 1 1 1 1 1 1 1 0 0 0 3 8 8 4 -3 -0 3 2 4 5 7 8 9 9 8 9 8 6 6 6 7
-1 -1 -1 -1 -1 -1 0 1 1 1 1 1 1 1 1 1 1 1 1 1 1 2 2 1 0 1 6 10 5 4 4 4 3 3 4 5 6 6 8 8 9 8 7 7 6 7 7
-1 -1 -1 -1 -1 0 1 1 1 2 2 2 1 1 1 1 1 1 1 1 1 2 2 1 1 4 7 8 5 5 4 5 4 3 4 4 4 7 7 7 6 7 9 8 8 8 9
-1 -1 -1 -0 0 1 1 2 2 1 2 2 1 2 2 2 1 1 1 2 1 1 1 0 1 6 9 5 6 5 5 5 4 4 3 4 4 4 8 8 7 10 12 13 9 9 9
-1 -0 -0 1 1 1 2 2 2 2 2 2 2 2 2 2 2 1 1 1 1 0 -0 0 6 8 10 3 6 6 6 7 5 5 4 3 4 9 10 12 13 14 16 15 13 9 10
-1 0 1 1 2 2 2 2 2 2 2 2 2 2 2 2 2 2 2 1 1 2 3 4 5 8 8 8 6 6 7 6 6 6 6 7 10 13 13 14 18 17 16 15 15 12 12
-0 1 2 2 2 2 2 3 3 2 2 2 2 2 2 2 2 2 4 5 8 9 8 9 9 9 8 7 6 8 7 7 7 9 11 10 13 16 14 13 13 13 15 15 13 12 14
1 2 2 2 2 3 3 3 3 3 2 2 2 2 3 3 3 3 5 7 8 8 10 7 8 8 7 7 9 9 7 10 10 13 11 13 15 12 11 12 13 14 15 15 14 12 13
1 2 2 3 3 3 3 3 3 3 3 3 3 3 3 3 3 5 6 7 5 6 11 9 8 8 8 7 10 10 9 10 11 13 13 15 13 10 11 13 14 15 16 16 16 14 13
2 2 3 3 3 3 4 3 3 3 2 3 3 3 3 3 6 7 8 5 5 6 13 11 9 8 8 7 10 8 8 10 11 13 12 14 11 11 13 14 14 17 13 13 14 16 19
2 3 3 3 3 4 3 3 3 3 3 3 3 3 3 4 9 9 7 5 6 7 16 10 9 6 8 11 10 9 8 10 13 12 13 15 13 14 14 14 13 15 12 14 14 16 18
2 3 4 4 4 4 3 3 3 3 3 3 3 3 4 7 8 8 6 5 7 12 17 11 9 10 11 11 11 10 11 10 11 12 12 13 11 12 13 12 13 13 14 15 15 18 21
3 3 4 4 4 4 3 3 3 3 3 4 4 4 5 7 10 7 7 7 12 15 10 12 12 11 12 14 13 12 13 15 17 18 19 15 13 12 12 15 14 15 19 21 22 21 21
3 4 4 4 4 4 4 3 3 3 3 4 4 5 4 7 7 7 8 10 15 12 13 10 11 12 14 14 14 13 14 16 15 16 18 19 19 15 13 15 17 17 18 21 24 24 21
3 4 4 5 4 4 4 4 4 3 4 4 4 7 9 9 7 7 10 15 16 13 11 12 12 14 15 14 14 14 16 16 15 16 19 20 19 14 13 13 15 17 20 17 20 21 23
3 4 5 5 5 4 4 4 4 4 4 5 7 9 10 9 7 8 12 14 14 11 11 11 15 14 17 16 16 16 16 14 15 14 15 18 21 15 14 13 14 16 15 21 21 26 25
3 4 5 5 5 5 4 4 4 4 4 5 7 10 9 9 8 10 15 14 12 10 10 13 14 15 16 17 16 17 16 15 13 14 15 17 19 18 16 17 19 18 19 19 20 20 24
3 4 5 5 5 5 4 4 4 4 5 6 9 14 9 8 12 14 15 12 10 11 11 12 13 14 15 16 17 16 16 15 13 15 17 17 20 22 20 16 15 16 19 19 25 23 20
3 4 5 5 5 5 5 4 4 5 6 10 12 13 8 8 14 16 13 13 13 12 13 13 14 13 14 16 18 16 15 13 14 15 17 17 21 25 23 19 17 19 18 18 17 19 22
3 4 5 5 5 5 5 5 5 5 5 8 11 14 12 11 12 14 14 14 15 13 13 13 14 14 15 17 16 18 16 13 14 14 13 15 20 22 25 21 20 21 19 18 19 24 23
2 3 4 5 5 5 5 5 5 5 5 9 12 16 14 17 15 14 14 14 15 16 14 14 16 15 16 21 18 18 17 16 14 13 16 18 22 20 19 18 18 19 20 19 21 19 25
1 2 4 5 5 5 5 5 5 5 5 11 12 14 14 17 13 15 14 16 16 15 15 16 16 16 16 18 18 20 18 18 19 17 19 18 23 21 22 19 19 20 18 18 18 17 18
1 2 3 4 5 5 5 5 5 5 6 12 12 11 13 14 15 16 17 15 15 15 15 15 15 16 17 16 16 17 18 18 18 19 20 20 21 24 25 21 21 23 20 19 18 14 14
1 1 2 3 4 5 5 5 5 5 6 9 11 10 14 17 16 16 14 14 15 15 16 15 15 16 15 15 16 17 18 17 17 17 17 20 22 23 27 23 28 20 16 15 16 12 12
0 1 2 3 4 5 5 5 5 4 5 10 10 10 13 17 16 15 15 16 16 15 16 16 16 16 16 17 21 22 22 21 20 19 19 18 21 29 29 26 22 19 17 16 16 15 9
0 1 2 2 4 4 5 5 5 5 6 10 11 10 12 15 17 15 16 16 18 19 18 17 16 15 16 19 23 27 25 24 23 22 18 18 20 25 29 31 26 20 15 11 12 17 8
0 1 2 2 3 4 5 5 5 5 6 10 11 11 12 16 15 15 17 17 16 17 20 18 18 18 17 23 25 25 25 22 24 25 23 25 27 28 25 30 22 16 13 11 17 15 8
1 1 2 2 3 4 5 6 5 6 7 10 12 11 12 15 15 14 14 17 16 17 21 19 19 19 22 25 24 24 24 23 24 22 22 23 29 28 27 30 25 14 13 15 11 8 7
1 1 2 2 3 4 5 5 6 6 6 8 12 10 10 13 14 13 13 14 15 16 17 19 18 19 19 22 23 22 23 23 23 25 20 24 21 25 22 21 15 13 11 9 7 8 7